[[{"header":{"parameterUnit":"m.s-1","parameterCategory":1,"la1":30.2991,"la2":30.254,"lo1":-89.0895,"lo2":-89.0444,"dy":0.0017,"dx":0.0017,"nx":28,"ny":28,"refTime":"2025-01-14T09:00:00:Z","depth":0,"parameterNumber":2,"parameterNumberName":"U-component_of_WINDS"},"data":[0,0,0,0,0,0,0,0,0,0,0,0,0,0,0,0,0,0,0,0,0,0,0,0,0,0,0,0,0,0,0,0,0,0,0,0,0,0,0,0,0,0,0,0,0,0,0,0,0,0,0,0,0,0,0,0,0,0,-3.6651,-3.6651,0,-3.6683,-3.6684,-3.6684,-3.6545,-3.6541,-3.6537,-3.6533,-3.6569,-3.6574,-3.6579,0,0,0,0,0,0,0,0,0,0,0,0,0,-3.6469,-3.6474,-3.6651,-3.6651,-3.6651,-3.6683,-3.6684,-3.6684,-3.6546,-3.6541,-3.6536,-3.6531,-3.6568,-3.6574,-3.6579,0,0,0,0,0,0,0,0,0,0,0,0,0,-3.653,-3.6475,-3.6651,-3.6586,-3.6581,-3.6683,-3.6684,-3.6684,-3.6547,-3.6541,-3.6535,-3.6529,-3.6566,-3.6573,-3.658,-3.6747,0,0,-3.6602,-3.6605,0,0,0,0,0,0,0,0,-3.6527,-3.6537,-3.6595,-3.6591,-3.6585,-3.6604,-3.6633,-3.6706,-3.6548,-3.656,-3.6533,-3.6526,-3.6586,-3.6591,-3.6611,-3.6749,-3.675,-3.6603,-3.6607,-3.661,-3.6612,0,0,0,0,0,0,0,-3.6523,-3.6535,-3.6664,-3.6596,-3.659,-3.6556,-3.6558,-3.6646,-3.6607,-3.6558,-3.6548,-3.6554,-3.6582,-3.6604,-3.6611,-3.6751,-3.6602,-3.6609,-3.6613,-3.6616,-3.7027,-3.7034,0,0,0,0,0,0,-3.6527,-3.6532,-3.6662,-3.6665,-3.654,-3.6564,-3.6566,-3.6604,-3.6606,-3.66,-3.6559,-3.6547,-3.6595,-3.6603,-3.6612,-3.6808,-3.661,-3.6617,-3.6621,-3.7021,-3.7029,-3.7036,0,0,0,0,0,0,-3.6523,-3.654,-3.6661,-3.6596,-3.6608,-3.6574,-3.6617,-3.6608,-3.663,-3.6606,-3.6599,-3.6589,-3.6591,-3.6601,-3.6714,-3.6807,-3.662,-3.6626,-3.7013,-3.7023,-3.7032,-3.7202,0,0,0,0,0,0,-3.6519,-3.6539,-3.6602,-3.6598,-3.6612,-3.6764,-3.6623,-3.6613,-3.6642,-3.6627,-3.6632,-3.6627,-3.6587,-3.6704,-3.6721,-3.6814,-3.6632,-3.7004,-3.7017,-3.7029,-3.7188,-3.7216,-3.724,0,0,0,0,0,-3.6513,-3.6649,-3.6606,-3.6623,-3.669,-3.6769,-3.6778,-3.6727,-3.665,-3.6714,-3.6698,-3.6627,-3.6794,-3.6717,-3.6735,-3.6831,-3.6998,-3.7014,-3.7028,-3.7176,-3.7211,-3.724,0,0,0,0,0,0,-3.6667,-3.6648,-3.66,-3.6739,-3.6757,-3.6746,-3.6824,-3.6765,-3.6806,-3.6791,-3.6727,-3.6729,-3.6854,-3.6853,-3.6768,-3.6992,-3.6883,-3.6902,-3.6989,-3.7022,-3.7048,-3.7046,-3.6638,0,0,0,0,0,-3.6716,-3.6782,-3.6761,-3.6886,-3.6897,-3.686,-3.6892,-3.6851,-3.6868,-3.6875,-3.6867,-3.6887,-3.6943,-3.6982,-3.7032,-3.7186,-3.7185,-3.726,-3.7287,-3.7309,-3.7327,-3.7409,-3.7442,-3.7085,-3.7085,-3.7084,0,0,-3.6821,-3.6818,-3.6864,-3.6917,-3.6926,-3.6995,-3.6867,-3.6946,-3.6997,-3.6887,-3.6993,-3.6989,-3.7005,-3.714,-3.7198,-3.7143,-3.7425,-3.7328,-3.7345,-3.7352,-3.7427,-3.7461,-3.7492,-3.7095,-3.7093,-3.7091,0,0,-3.7047,-3.7051,-3.7155,-3.7167,-3.7181,-3.7155,-3.718,-3.7178,-3.717,-3.7275,-3.7194,-3.7254,-3.7353,-3.7368,-3.7389,-3.7619,-3.7556,-3.7638,-3.7777,-3.7857,-3.7885,-3.791,-3.7994,-3.8024,-3.7655,-3.7656,-3.7656,0,-3.7175,-3.7276,-3.7217,-3.7301,-3.7327,-3.7229,-3.7335,-3.7349,-3.738,-3.7401,-3.7337,-3.7459,-3.7463,-3.76,-3.7656,-3.7676,-3.7703,-3.7638,-3.7886,-3.791,-3.7932,-3.8011,-3.8043,-3.7666,-3.7664,-3.7663,-3.7662,0,-3.7433,-3.7504,-3.7587,-3.7619,-3.7653,-3.7749,-3.7704,-3.7747,-3.7703,-3.7683,-3.7792,-3.7793,-3.7843,-3.7871,-3.7829,-3.8003,-3.7968,-3.7896,-3.7785,-3.7977,-3.8051,-3.808,-3.768,-3.7676,-3.7673,-3.7671,0,0,-3.776,-3.7756,-3.7788,-3.7801,-3.7809,-3.7863,-3.7953,-3.8,-3.8039,-3.8063,-3.8138,-3.8223,-3.8156,-3.818,-3.8139,-3.8209,-3.8393,-3.8129,-3.8128,-3.8179,-3.8585,-3.8641,-3.8677,-3.8349,-3.8355,-3.8359,-3.8584,0,-3.7982,-3.8136,-3.8085,-3.8241,-3.8306,-3.8213,-3.8291,-3.8306,-3.8289,-3.8343,-3.8324,-3.8386,-3.8293,-3.8307,-3.8372,-3.8357,-3.8474,-3.8339,-3.842,-3.8424,-3.8421,-3.8714,-3.8773,-3.8986,-3.8612,-3.8617,-3.862,0,-3.8263,-3.8298,-3.8461,-3.8458,-3.8483,-3.8555,-3.8594,-3.8645,-3.8659,-3.8642,-3.8669,-3.8612,-3.8701,-3.8588,-3.8709,-3.8619,-3.8649,-3.8646,-3.8653,-3.866,-3.8536,-3.8732,-3.9052,-3.9085,-3.8665,-3.8661,-3.8658,0,-3.8488,-3.8575,-3.8683,-3.8697,-3.8696,-3.8748,-3.875,-3.8758,-3.8789,-3.8823,-3.8843,-3.8887,-3.8912,-3.8948,-3.8905,-3.8826,-3.9034,-3.8917,-3.9024,-3.9025,-3.9074,-3.9072,-3.9405,-3.909,-3.9089,-3.9088,-3.9088,0,-3.8743,-3.8847,-3.8784,-3.8851,-3.8965,-3.8904,-3.9018,-3.901,-3.9017,-3.9081,-3.9002,-3.9065,-3.9003,-3.906,-3.9026,-3.9133,-3.9144,-3.9134,-3.9125,-3.9143,-3.9144,-3.9163,-3.9148,-3.9097,-3.9095,-3.9093,-3.9092,0,-3.9014,-3.8976,-3.9088,-3.9077,-3.9076,-3.9161,-3.9151,-3.9213,-3.919,-3.9273,-3.9288,-3.9253,-3.9316,-3.9275,-3.9339,-3.9316,-3.9456,-3.9425,-3.9452,-3.9444,-3.9554,-3.9545,-3.9913,-3.9959,-3.9612,-3.9615,-3.9618,0,-3.9181,-3.9258,-3.9255,-3.9292,-3.9299,-3.9359,-3.9391,-3.9334,-3.937,-3.9391,-3.9451,-3.9506,-3.9547,-3.9652,-3.9632,-3.968,-3.9651,-3.9776,-3.9658,-3.9674,-3.9655,-3.9652,-3.966,-3.9801,-3.9806,-3.9809,-3.9811,0,-3.9482,-3.9459,-3.9506,-3.9548,-3.9588,-3.9618,-3.9641,-3.9676,-3.9619,-3.9663,-3.9726,-3.9758,-3.9822,-3.9878,-3.9918,-3.992,-3.9858,-3.9848,-3.9876,-3.9897,-3.991,-3.9906,-3.952,-3.9841,-3.9838,-3.9836,-3.9834,-3.9833,-3.9707,-3.9772,-3.9779,-3.9835,-3.9846,-3.987,-3.9928,-3.9912,-3.9962,-4.001,-3.9972,-4.0047,-4.0058,-4.0105,-4.0115,-4.0173,-4.0122,-4.0162,-4.0172,-4.0184,-4.02,-3.9899,-4.018,-4.0179,-4.0178,-4.0177,-4.0177,0,-4.0005,-4.0005,-4.0057,-4.0092,-4.0136,-4.0071,-4.0093,-4.0135,-4.0202,-4.0216,-4.0258,-4.033,-4.0384,-4.0369,-4.0417,-4.0466,-4.0439,-4.0481,-4.0478,-4.048,-4.0242,-4.0214,-4.0503,-4.0503,-4.0503,-4.0503,-4.0503,-4.0503,-4.0166,-4.0272,-4.025,-4.0361,-4.0359,-4.0432,-4.045,-4.0472,-4.0483,-4.0567,-4.0611,-4.06,-4.0603,-4.065,-4.0697,-4.0691,-4.0713,-4.0767,-4.0751,-4.0529,-4.0497,-4.0466,-4.044,-4.0772,-4.0772,-4.0985,-4.0987,-4.0988]},{"header":{"parameterUnit":"m.s-1","parameterCategory":1,"la1":30.2991,"la2":30.254,"lo1":-89.0895,"lo2":-89.0444,"dy":0.0017,"dx":0.0017,"nx":28,"ny":28,"refTime":"2025-01-14T09:00:00:Z","depth":0,"parameterNumber":3,"parameterNumberName":"V-component_of_WINDS"},"data":[0,0,0,0,0,0,0,0,0,0,0,0,0,0,0,0,0,0,0,0,0,0,0,0,0,0,0,0,0,0,0,0,0,0,0,0,0,0,0,0,0,0,0,0,0,0,0,0,0,0,0,0,0,0,0,0,0,0,-3.2798,-3.2798,0,-3.2808,-3.2808,-3.2808,-3.2773,-3.2772,-3.2771,-3.277,-3.2779,-3.2781,-3.2782,0,0,0,0,0,0,0,0,0,0,0,0,0,-3.2746,-3.2747,-3.2798,-3.2798,-3.2798,-3.2808,-3.2808,-3.2808,-3.2773,-3.2772,-3.277,-3.2769,-3.2779,-3.278,-3.2782,0,0,0,0,0,0,0,0,0,0,0,0,0,-3.2764,-3.2748,-3.2798,-3.2782,-3.278,-3.2808,-3.2808,-3.2809,-3.2773,-3.2772,-3.277,-3.2768,-3.2778,-3.278,-3.2782,-3.2826,0,0,-3.2788,-3.2789,0,0,0,0,0,0,0,0,-3.2763,-3.2766,-3.2784,-3.2783,-3.2782,-3.2788,-3.2794,-3.2814,-3.2774,-3.2776,-3.2769,-3.2768,-3.2783,-3.2785,-3.279,-3.2826,-3.2827,-3.2788,-3.2789,-3.279,-3.2791,0,0,0,0,0,0,0,-3.2762,-3.2765,-3.2802,-3.2784,-3.2783,-3.2773,-3.2774,-3.2797,-3.2789,-3.2776,-3.2773,-3.2775,-3.2782,-3.2788,-3.279,-3.2827,-3.2788,-3.279,-3.2791,-3.2792,-3.2897,-3.2899,0,0,0,0,0,0,-3.2763,-3.2764,-3.2802,-3.2802,-3.2768,-3.2776,-3.2776,-3.2787,-3.2788,-3.2787,-3.2776,-3.2773,-3.2786,-3.2788,-3.279,-3.284,-3.279,-3.2792,-3.2793,-3.2895,-3.2897,-3.2899,0,0,0,0,0,0,-3.2762,-3.2766,-3.2801,-3.2783,-3.2786,-3.2778,-3.2791,-3.2788,-3.2794,-3.2789,-3.2787,-3.2784,-3.2785,-3.2788,-3.2817,-3.284,-3.2793,-3.2794,-3.2893,-3.2896,-3.2898,-3.294,0,0,0,0,0,0,-3.276,-3.2766,-3.2784,-3.2783,-3.2788,-3.2829,-3.2792,-3.279,-3.2798,-3.2794,-3.2796,-3.2794,-3.2784,-3.2814,-3.2819,-3.2841,-3.2796,-3.2891,-3.2895,-3.2897,-3.2937,-3.2944,-3.295,0,0,0,0,0,-3.2759,-3.2795,-3.2785,-3.2789,-3.2809,-3.283,-3.2832,-3.282,-3.28,-3.2816,-3.2812,-3.2794,-3.2837,-3.2818,-3.2822,-3.2846,-3.289,-3.2894,-3.2897,-3.2934,-3.2943,-3.295,0,0,0,0,0,0,-3.2799,-3.2795,-3.2783,-3.2821,-3.2826,-3.2824,-3.2845,-3.283,-3.284,-3.2836,-3.282,-3.282,-3.2852,-3.2852,-3.2831,-3.2887,-3.286,-3.2865,-3.2886,-3.2894,-3.2901,-3.2899,-3.2797,0,0,0,0,0,-3.2812,-3.283,-3.2826,-3.286,-3.2863,-3.2853,-3.2862,-3.2852,-3.2856,-3.2858,-3.2856,-3.2861,-3.2875,-3.2885,-3.2898,-3.2937,-3.2936,-3.2955,-3.2962,-3.2967,-3.2971,-3.299,-3.2998,-3.2911,-3.2911,-3.2911,0,0,-3.284,-3.284,-3.2853,-3.2868,-3.287,-3.2888,-3.2855,-3.2876,-3.2889,-3.2861,-3.2888,-3.2887,-3.2891,-3.2925,-3.2939,-3.2925,-3.2995,-3.2972,-3.2977,-3.2978,-3.2995,-3.3003,-3.301,-3.2914,-3.2914,-3.2913,0,0,-3.2899,-3.2902,-3.2929,-3.2932,-3.2936,-3.2929,-3.2936,-3.2936,-3.2933,-3.296,-3.2939,-3.2954,-3.2979,-3.2982,-3.2987,-3.3045,-3.3028,-3.305,-3.3084,-3.3102,-3.3109,-3.3115,-3.3134,-3.3141,-3.3054,-3.3054,-3.3054,0,-3.2933,-3.296,-3.2945,-3.2967,-3.2973,-3.2948,-3.2975,-3.2978,-3.2987,-3.2991,-3.2976,-3.3005,-3.3007,-3.304,-3.3053,-3.3059,-3.3065,-3.3049,-3.3109,-3.3115,-3.312,-3.3138,-3.3146,-3.3057,-3.3056,-3.3056,-3.3056,0,-3.3,-3.3018,-3.304,-3.3047,-3.3056,-3.3081,-3.3069,-3.3079,-3.3068,-3.3062,-3.3089,-3.3089,-3.31,-3.3108,-3.3097,-3.3139,-3.313,-3.3112,-3.3084,-3.3131,-3.3148,-3.3155,-3.306,-3.3059,-3.3059,-3.3058,0,0,-3.3086,-3.3084,-3.3092,-3.3094,-3.3095,-3.3109,-3.3131,-3.3142,-3.315,-3.3157,-3.3174,-3.3195,-3.3178,-3.3183,-3.3173,-3.3189,-3.3232,-3.3169,-3.3169,-3.3179,-3.3276,-3.3288,-3.3296,-3.3221,-3.3223,-3.3224,-3.3275,0,-3.3143,-3.318,-3.3167,-3.3205,-3.3221,-3.3196,-3.3215,-3.3218,-3.3213,-3.3225,-3.322,-3.3234,-3.3211,-3.3214,-3.3229,-3.3224,-3.3251,-3.322,-3.3236,-3.3237,-3.3234,-3.3305,-3.3319,-3.3367,-3.3281,-3.3283,-3.3283,0,-3.3214,-3.3222,-3.3261,-3.3258,-3.3264,-3.3281,-3.3289,-3.3301,-3.3303,-3.3298,-3.3303,-3.3288,-3.3309,-3.3281,-3.3308,-3.3287,-3.3293,-3.3291,-3.3293,-3.3293,-3.3262,-3.3306,-3.3383,-3.3389,-3.3294,-3.3293,-3.3292,0,-3.327,-3.3291,-3.3316,-3.3319,-3.3316,-3.3329,-3.3328,-3.3328,-3.3335,-3.3342,-3.3345,-3.3355,-3.3359,-3.3366,-3.3354,-3.3336,-3.3382,-3.3354,-3.3377,-3.3378,-3.3388,-3.3387,-3.3465,-3.3394,-3.3394,-3.3394,-3.3393,0,-3.3334,-3.3359,-3.3341,-3.3357,-3.3383,-3.3367,-3.3393,-3.339,-3.339,-3.3404,-3.3384,-3.3397,-3.3381,-3.3392,-3.3383,-3.3405,-3.3408,-3.3404,-3.3401,-3.3405,-3.3405,-3.3407,-3.3403,-3.3395,-3.3395,-3.3395,-3.3394,0,-3.3401,-3.3391,-3.3416,-3.3411,-3.341,-3.343,-3.3425,-3.3439,-3.3432,-3.3449,-3.3452,-3.3442,-3.3454,-3.3442,-3.3455,-3.3448,-3.3478,-3.3471,-3.3477,-3.3474,-3.3498,-3.3495,-3.3579,-3.3588,-3.3513,-3.3513,-3.3514,0,-3.3442,-3.346,-3.3456,-3.3464,-3.3464,-3.3477,-3.3483,-3.3468,-3.3475,-3.3477,-3.349,-3.35,-3.3508,-3.3528,-3.3521,-3.353,-3.3522,-3.3551,-3.3523,-3.3526,-3.352,-3.3519,-3.3519,-3.3556,-3.3557,-3.3558,-3.3558,0,-3.3515,-3.3508,-3.3518,-3.3525,-3.3533,-3.3538,-3.3541,-3.3549,-3.3532,-3.3541,-3.3553,-3.3559,-3.357,-3.358,-3.3586,-3.3585,-3.3568,-3.3567,-3.3572,-3.3576,-3.3578,-3.3575,-3.349,-3.3565,-3.3564,-3.3564,-3.3563,-3.3563,-3.3569,-3.3583,-3.3582,-3.3593,-3.3593,-3.3596,-3.3608,-3.3602,-3.3612,-3.3619,-3.361,-3.3624,-3.3623,-3.363,-3.363,-3.364,-3.3628,-3.3637,-3.3639,-3.3641,-3.3643,-3.3578,-3.3642,-3.3642,-3.3641,-3.3641,-3.3641,0,-3.364,-3.3637,-3.3647,-3.3652,-3.366,-3.3643,-3.3646,-3.3653,-3.3666,-3.3666,-3.3674,-3.3686,-3.3695,-3.3689,-3.3696,-3.3706,-3.3698,-3.3708,-3.3706,-3.3706,-3.3655,-3.3648,-3.3714,-3.3714,-3.3714,-3.3714,-3.3714,-3.3714,-3.3677,-3.3699,-3.3692,-3.3713,-3.371,-3.3724,-3.3726,-3.3728,-3.3729,-3.3743,-3.3751,-3.3746,-3.3743,-3.375,-3.3757,-3.3755,-3.3758,-3.377,-3.3765,-3.3717,-3.371,-3.3703,-3.3697,-3.3771,-3.3771,-3.3815,-3.3816,-3.3816]}]]